Orlando, FL

6:38 PM EST on February 20, 2017 (GMT -0500)
Orlando International

Weather History for KMCO - March, 2013

Change the Weather History Date:

Sunday, March 17, 2013

  Actual Average Record
Temperature  
Mean Temperature 62 °F 67 °F  
Max Temperature 80 °F 78 °F 93 °F (1921)
Min Temperature 44 °F 56 °F 32 °F (1916)
Degree Days  
Heating Degree Days 3 2  
Month to date heating degree days 107 42  
Since 1 July heating degree days 419 541  
Cooling Degree Days 0 4  
Month to date cooling degree days 4 59  
Year to date cooling degree days 204 163  
Growing Degree Days 12 (Base 50)    
Moisture  
Dew Point 49 °F    
Average Humidity 70    
Maximum Humidity 100    
Minimum Humidity 40    
Precipitation  
Precipitation 0.00 in 0.13 in 1.65 in (2005)
Month to date precipitation 0.23 1.93  
Year to date precipitation 1.14 6.66  
Sea Level Pressure  
Sea Level Pressure 30.10 in    
Wind  
Wind Speed 5 mph (South)    
Max Wind Speed 17 mph    
Max Gust Speed 21 mph    
Visibility 9 miles    
Events Fog    
T = Trace of Precipitation, MM = Missing Value Source: NWS Daily Summary

Daily Weather History Graph

Daily Weather History Graph

Search for Another Location

Airport or City:

Trip Planner

Search our weather history database for the weather conditions in past years. The results will help you decide how hot, cold, wet, or windy it might be!

Date:

Astronomy

Mar. 17, 2013 Rise Set
Actual Time 7:32 AM EDT 7:35 PM EDT
Civil Twilight 7:08 AM EDT 7:58 PM EDT
Nautical Twilight 6:41 AM EDT 8:25 PM EDT
Astronomical Twilight 6:14 AM EDT 8:53 PM EDT
Moon 11:10 AM EDT (3/17) 12:16 AM EDT (3/17)
Length of Visible Light 12h 49m
Length of Day
12h 02m
Waxing Crescent, 31% of the Moon is Illuminated
Mar 17
Waxing Crescent
Mar 19
First Quarter
Mar 27
Full
Apr 3
Last Quarter
Apr 10
New

Hourly Weather History & Observations

Time (EDT) Temp. Windchill Dew Point Humidity Pressure Visibility Wind Dir Wind Speed Gust Speed Precip Events Conditions
12:53 AM 55.9 °F - 42.1 °F 60% 30.12 in 10.0 mi Calm Calm - N/A   Clear
1:53 AM 53.1 °F - 43.0 °F 69% 30.11 in 10.0 mi Calm Calm - N/A   Clear
2:53 AM 48.0 °F - 42.1 °F 80% 30.12 in 10.0 mi South 6.9 mph - N/A   Clear
3:53 AM 50.0 °F - 43.0 °F 77% 30.10 in 10.0 mi Calm Calm - N/A   Clear
4:53 AM 46.9 °F - 42.1 °F 83% 30.10 in 10.0 mi Calm Calm - N/A   Clear
5:53 AM 46.9 °F - 44.1 °F 90% 30.10 in 10.0 mi Calm Calm - N/A   Partly Cloudy
6:50 AM 48.2 °F - 46.4 °F 93% 30.13 in 7.0 mi Calm Calm - N/A   Scattered Clouds
6:53 AM 48.0 °F - 46.0 °F 93% 30.12 in 7.0 mi Calm Calm - N/A   Scattered Clouds
7:17 AM 46.4 °F - 46.4 °F 100% 30.14 in 7.0 mi Calm Calm - N/A   Scattered Clouds
7:27 AM 44.6 °F - 44.6 °F 100% 30.14 in 7.0 mi Calm Calm - N/A   Scattered Clouds
7:53 AM 45.0 °F - 45.0 °F 100% 30.14 in 7.0 mi Calm Calm - N/A Fog Shallow Fog
8:14 AM 46.4 °F 45.2 °F 46.4 °F 100% 30.15 in 7.0 mi SSE 3.5 mph - N/A Fog Shallow Fog
8:53 AM 54.0 °F - 53.1 °F 97% 30.17 in 7.0 mi Calm Calm - N/A   Scattered Clouds
9:53 AM 64.9 °F - 51.1 °F 61% 30.16 in 10.0 mi SSE 6.9 mph - N/A   Scattered Clouds
10:53 AM 69.1 °F - 48.9 °F 49% 30.17 in 10.0 mi SSW 5.8 mph - N/A   Mostly Cloudy
11:53 AM 73.0 °F - 51.1 °F 46% 30.16 in 10.0 mi SE 10.4 mph - N/A   Mostly Cloudy
12:53 PM 73.9 °F - 52.0 °F 46% 30.13 in 10.0 mi South 13.8 mph 18.4 mph N/A   Mostly Cloudy
1:53 PM 77.0 °F - 51.1 °F 40% 30.10 in 10.0 mi SW 11.5 mph - N/A   Scattered Clouds
2:53 PM 75.9 °F - 50.0 °F 40% 30.07 in 10.0 mi Variable 3.5 mph - N/A   Mostly Cloudy
3:53 PM 75.9 °F - 52.0 °F 43% 30.05 in 10.0 mi South 16.1 mph 20.7 mph N/A   Mostly Cloudy
4:53 PM 77.0 °F - 52.0 °F 42% 30.05 in 10.0 mi SSW 12.7 mph 17.3 mph N/A   Mostly Cloudy
5:53 PM 75.0 °F - 51.1 °F 43% 30.02 in 10.0 mi SSE 6.9 mph - N/A   Overcast
6:53 PM 73.9 °F - 53.1 °F 48% 30.03 in 10.0 mi Calm Calm - N/A   Overcast
7:53 PM 71.1 °F - 53.1 °F 53% 30.04 in 10.0 mi SSE 4.6 mph - N/A   Overcast
8:53 PM 71.1 °F - 53.1 °F 53% 30.04 in 10.0 mi Calm Calm - N/A   Overcast
9:53 PM 69.1 °F - 57.0 °F 65% 30.06 in 10.0 mi SE 8.1 mph - N/A   Mostly Cloudy
10:53 PM 66.9 °F - 57.0 °F 70% 30.07 in 10.0 mi ESE 5.8 mph - N/A   Mostly Cloudy
11:53 PM 66.0 °F - 57.9 °F 75% 30.09 in 10.0 mi South 3.5 mph - N/A   Overcast